Lid_Strength_Index
11 11 11 12 12 12 13 13 12 13 13 13 12 12 13 13 13 13 13 14 13 13
11 11 11 12 12 12 13 12 12 13 13 13 12 12 13 13 13 13 13 13 13 13
11 11 11 12 12 13 13 12 12 13 13 13 13 13 13 13 13 14 13 13 13 12
11 11 12 12 12 12 13 13 13 13 13 13 13 13 14 14 14 14 14 13 12 11
11 11 12 12 12 12 13 13 13 13 13 13 13 13 14 14 13 14 14 12 12 11
11 12 12 12 13 13 13 13 13 13 13 13 13 14 14 14 14 14 13 12 12 11
12 12 12 12 13 13 14 14 14 14 13 13 13 13 13 13 14 13 12 11 10 10
12 12 12 13 13 13 14 14 14 14 14 14 13 13 14 13 13 12 11 10 9 9
12 12 13 13 13 14 14 14 14 15 14 14 13 10 9 9 12 11 11 11 10 10
12 12 13 13 13 14 14 15 15 15 14 15 14 10 8 8 11 11 11 11 11 10
12 12 13 13 14 15 15 15 15 15 15 15 14 9 9 8 11 11 11 11 11 11
12 13 13 14 14 15 15 15 15 15 15 15 15 10 9 9 11 12 11 10 10 10
12 12 13 14 14 15 15 15 15 15 15 13 15 11 9 9 11 12 11 10 9 6
12 13 13 14 14 15 15 15 15 15 16 16 15 15 9 8 11 11 11 10 9 7